Tracking 19475 objects as of 18-Jan-2019
HD Live streaming from Space Station
objects crossing your sky now

LEMUR 2 TALLHAMN-ATC

Track LEMUR 2 TALLHAMN-ATC now!
10-day predictions
LEMUR 2 TALLHAMN-ATC is classified as:


NORAD ID: 43167
Int'l Code: 2018-010E
Perigee: 503.1 km
Apogee: 539.5 km
Inclination: 82.9 °
Period: 94.9 minutes
Semi major axis: 6892 km
RCS: Unknown
Launch date: January 21, 2018
Source: United States (US)
Launch site: Rocket Lab Launch Complex (RLLC)
aabbcc
Your satellite tracking list
Your tracking list is empty




NASA's NSSDC Master Catalog

Two Line Element Set (TLE):
1 43167U 18010E   19017.89846753  .00000965  00000-0  46317-4 0  9994
2 43167  82.9219 161.6003 0026384  64.8831 295.5136 15.17243842 54843
Source of the keplerian elements: AFSPC